Location: Krakow
(50.0830°N, 19.9170°E)
Time: 18:18:30
(UTC+01:00)

Vanguard 1 Rocket - Pass Details

Date: 10 December 2023
Orbit: 653 x 4219 km, 34.3° (Epoch: 29 February)

Event Time Altitude Azimuth Distance (km) Brightness Sun altitude
Rises 02:07:12 0° 214° (SW) 8,387 - -49.5°
Reaches altitude 10° 02:14:02 10° 206° (SSW) 7,417 - -48.5°
Exits shadow 02:25:27 26° 185° (S) 5,878 11.2 -46.8°
Maximum altitude 02:34:29 33° 154° (SSE) 5,018 11.0 -45.5°
Drops below altitude 10° 02:49:15 10° 98° (E) 5,436 11.9 -43.2°
Sets 02:53:11 0° 90° (E) 6,001 12.3 -42.6°
